User: anonymous   Login
Location: Bouysse
(45.3674°N, 1.8947°E)
Time: 12:05:43
(UTC+00:00)
Language:

Cosmos-2242 - Orbit

View from above orbital plane
View from above orbital plane
View from above satellite
View from above satellite

Ground track
Ground track

The orbit data is extracted from the following two-line orbital elements,

1 22626U 93024A   21166.87136415  .00000236  00000-0  22873-4 0  9994
2 22626  82.5217 105.1855 0017843 318.1532  41.8321 14.88135874522889
Epoch (UTC): 15 June 2021 20:54:45
Eccentricity: 0.0017843
inclination: 82.5217°
perigee height: 591 km
apogee height: 616 km
right ascension of ascending node: 105.1855°
argument of perigee: 318.1532°
revolutions per day: 14.88135874
mean anomaly at epoch: 41.8321°
orbit number at epoch: 52288

The dashed part of the orbit path shows where the satellite is in the earth's shadow,  

DLR